BEE54P EGPH-EDDF

Flight info

Callsign BEE54P
Flight time 1h 48m
Altitude 25000
Route TLA Y96 HAVEN/N0432F370 DCT OTBUN DCT AGPED DCT GODOS DCT AMGOD DCT SOGPO DCT DIXAT DIXAT1A
Aircraft E195/M-SDE3GILORVW/S

Departure

Time 2026-05-03 20:31
Airport Edinburgh Airport (EGPH)

Arrival

Time 2026-05-03 22:19
Airport Frankfurt Main Airport (EDDF)
Time Latitude Longitude Altitude Speed Heading
2026-05-03 20:15 55.94835 -3.35806 115 ft 0 kts 211°
2026-05-03 20:18 55.94840 -3.35800 111 ft 4 kts 210°
2026-05-03 20:18 55.94862 -3.35779 114 ft 2 kts 208°
2026-05-03 20:18 55.94881 -3.35756 113 ft 4 kts 239°
2026-05-03 20:18 55.94886 -3.35715 111 ft 4 kts 288°
2026-05-03 20:19 55.94880 -3.35688 112 ft 0 kts 298°
2026-05-03 20:22 55.94884 -3.35701 111 ft 4 kts 298°
2026-05-03 20:22 55.94909 -3.35784 114 ft 11 kts 298°
2026-05-03 20:23 55.94957 -3.35857 113 ft 7 kts 348°
2026-05-03 20:23 55.94993 -3.35851 112 ft 4 kts 21°
2026-05-03 20:23 55.95022 -3.35833 115 ft 5 kts 15°
2026-05-03 20:23 55.95042 -3.35838 115 ft 2 kts 329°
2026-05-03 20:24 55.95052 -3.35861 112 ft 4 kts 302°
2026-05-03 20:24 55.95078 -3.35940 113 ft 11 kts 297°
2026-05-03 20:24 55.95106 -3.36073 113 ft 9 kts 290°
2026-05-03 20:24 55.95128 -3.36184 112 ft 11 kts 289°
2026-05-03 20:25 55.95130 -3.36297 115 ft 6 kts 239°
2026-05-03 20:25 55.95101 -3.36376 115 ft 9 kts 237°
2026-05-03 20:25 55.95064 -3.36490 115 ft 13 kts 238°
2026-05-03 20:25 55.95008 -3.36654 113 ft 18 kts 239°
2026-05-03 20:26 55.94940 -3.36854 113 ft 19 kts 238°
2026-05-03 20:26 55.94868 -3.37064 113 ft 20 kts 238°
2026-05-03 20:26 55.94793 -3.37281 114 ft 21 kts 239°
2026-05-03 20:26 55.94719 -3.37507 113 ft 22 kts 239°
2026-05-03 20:27 55.94641 -3.37738 114 ft 22 kts 238°
2026-05-03 20:27 55.94560 -3.37974 113 ft 23 kts 239°
2026-05-03 20:27 55.94476 -3.38219 112 ft 23 kts 239°
2026-05-03 20:27 55.94392 -3.38467 112 ft 24 kts 239°
2026-05-03 20:28 55.94345 -3.38606 115 ft 8 kts 239°
2026-05-03 20:28 55.94314 -3.38702 113 ft 10 kts 239°
2026-05-03 20:28 55.94282 -3.38813 114 ft 9 kts 258°
2026-05-03 20:28 55.94299 -3.38876 113 ft 4 kts 322°
2026-05-03 20:29 55.94334 -3.38917 114 ft 7 kts 328°
2026-05-03 20:29 55.94388 -3.38968 113 ft 9 kts 349°
2026-05-03 20:29 55.94429 -3.38934 113 ft 7 kts 45°
2026-05-03 20:29 55.94464 -3.38832 113 ft 11 kts 59°
2026-05-03 20:30 55.94483 -3.38776 112 ft 15 kts 59°
2026-05-03 20:30 55.94670 -3.38223 113 ft 88 kts 59°
2026-05-03 20:30 55.95108 -3.36939 116 ft 151 kts 58°
2026-05-03 20:30 55.95716 -3.35202 587 ft 174 kts 58°
2026-05-03 20:31 55.96439 -3.33275 1263 ft 203 kts 55°
2026-05-03 20:31 55.97309 -3.31124 2133 ft 221 kts 54°
2026-05-03 20:31 55.98165 -3.28725 3035 ft 242 kts 59°
2026-05-03 20:31 55.99072 -3.25873 3239 ft 281 kts 59°
2026-05-03 20:32 56.00004 -3.22930 3262 ft 259 kts 59°
2026-05-03 20:32 56.00828 -3.20298 3471 ft 222 kts 59°
2026-05-03 20:32 56.01540 -3.18003 3979 ft 208 kts 59°
2026-05-03 20:32 56.02221 -3.15744 4675 ft 209 kts 62°
2026-05-03 20:33 56.02693 -3.13279 5302 ft 214 kts 76°
2026-05-03 20:33 56.02829 -3.10671 5870 ft 219 kts 89°
2026-05-03 20:33 56.02615 -3.07906 6423 ft 226 kts 102°
2026-05-03 20:33 56.02067 -3.05330 6887 ft 232 kts 115°
2026-05-03 20:34 56.01159 -3.02892 7330 ft 240 kts 129°
2026-05-03 20:34 55.99923 -3.00833 7779 ft 246 kts 143°
2026-05-03 20:34 55.98423 -2.99328 8256 ft 249 kts 158°
2026-05-03 20:34 55.96745 -2.98510 8740 ft 252 kts 173°
2026-05-03 20:35 55.95053 -2.98453 9229 ft 254 kts 187°
2026-05-03 20:35 55.93307 -2.99198 9790 ft 254 kts 202°
2026-05-03 20:35 55.91740 -3.00640 10315 ft 254 kts 213°
2026-05-03 20:35 55.90258 -3.02344 10830 ft 255 kts 215°
2026-05-03 20:36 55.88701 -3.03888 11328 ft 259 kts 201°
2026-05-03 20:36 55.86913 -3.04366 11818 ft 264 kts 178°
2026-05-03 20:36 55.85125 -3.03546 12309 ft 270 kts 155°
2026-05-03 20:36 55.83580 -3.01699 12881 ft 272 kts 143°
2026-05-03 20:37 55.82091 -2.99593 13432 ft 275 kts 142°
2026-05-03 20:37 55.80602 -2.97440 13988 ft 278 kts 142°
2026-05-03 20:37 55.79101 -2.95283 14522 ft 280 kts 142°
2026-05-03 20:37 55.77571 -2.93108 15068 ft 282 kts 142°
2026-05-03 20:38 55.76031 -2.90921 15592 ft 285 kts 142°
2026-05-03 20:38 55.74481 -2.88706 16122 ft 286 kts 142°
2026-05-03 20:38 55.72932 -2.86489 16660 ft 288 kts 142°
2026-05-03 20:38 55.71368 -2.84239 17185 ft 290 kts 142°
2026-05-03 20:39 55.69801 -2.81965 17698 ft 292 kts 141°
2026-05-03 20:39 55.68228 -2.79677 18219 ft 294 kts 141°
2026-05-03 20:39 55.66643 -2.77365 18669 ft 296 kts 141°
2026-05-03 20:39 55.65053 -2.75043 19097 ft 297 kts 141°
2026-05-03 20:40 55.63455 -2.72696 19508 ft 299 kts 141°
2026-05-03 20:40 55.61852 -2.70331 19909 ft 301 kts 141°
2026-05-03 20:40 55.60782 -2.68750 20168 ft 302 kts 141°
2026-05-03 20:40 55.59170 -2.66357 20548 ft 304 kts 141°
2026-05-03 20:41 55.57544 -2.63935 20926 ft 306 kts 141°
2026-05-03 20:41 55.55912 -2.61501 21291 ft 308 kts 141°
2026-05-03 20:41 55.54273 -2.59048 21641 ft 309 kts 140°
2026-05-03 20:41 55.52626 -2.56582 21996 ft 311 kts 140°
2026-05-03 20:42 55.50972 -2.54101 22344 ft 313 kts 140°
2026-05-03 20:42 55.49312 -2.51604 22695 ft 314 kts 140°
2026-05-03 20:42 55.47646 -2.49096 23062 ft 316 kts 141°
2026-05-03 20:42 55.45970 -2.46571 23398 ft 317 kts 141°
2026-05-03 20:43 55.44292 -2.44036 23720 ft 319 kts 140°
2026-05-03 20:43 55.42602 -2.41479 23997 ft 321 kts 140°
2026-05-03 20:43 55.40910 -2.38913 24264 ft 322 kts 140°
2026-05-03 20:43 55.39212 -2.36335 24534 ft 323 kts 140°
2026-05-03 20:44 55.37506 -2.33744 24799 ft 325 kts 140°
2026-05-03 20:44 55.35798 -2.31148 25067 ft 323 kts 140°
2026-05-03 20:44 55.34133 -2.28587 24700 ft 313 kts 139°
2026-05-03 20:44 55.32551 -2.26085 24405 ft 300 kts 139°
2026-05-03 20:45 55.31025 -2.23691 24157 ft 287 kts 139°
2026-05-03 20:45 55.29566 -2.21429 23952 ft 273 kts 140°
2026-05-03 20:45 55.28169 -2.19275 23753 ft 262 kts 140°
2026-05-03 20:45 55.26843 -2.17234 23510 ft 256 kts 140°
2026-05-03 20:46 55.25492 -2.15159 23241 ft 255 kts 140°
2026-05-03 20:46 55.24161 -2.13121 22964 ft 259 kts 140°
2026-05-03 20:46 55.22801 -2.11045 22682 ft 260 kts 140°
2026-05-03 20:46 55.21436 -2.08965 22405 ft 260 kts 140°
2026-05-03 20:47 55.20069 -2.06887 22130 ft 259 kts 140°
2026-05-03 20:47 55.18711 -2.04827 21861 ft 258 kts 140°
2026-05-03 20:47 55.17355 -2.02778 21595 ft 257 kts 140°
2026-05-03 20:47 55.16008 -2.00747 21333 ft 255 kts 140°
2026-05-03 20:48 55.14664 -1.98727 21073 ft 254 kts 140°
2026-05-03 20:48 55.13324 -1.96717 20812 ft 253 kts 141°
2026-05-03 20:48 55.12036 -1.94633 20546 ft 253 kts 133°
2026-05-03 20:48 55.10986 -1.92160 20306 ft 253 kts 121°
2026-05-03 20:49 55.10141 -1.89481 20062 ft 252 kts 118°
2026-05-03 20:49 55.09327 -1.86771 19815 ft 252 kts 118°
2026-05-03 20:49 55.08506 -1.84079 19573 ft 251 kts 118°
2026-05-03 20:49 55.07680 -1.81399 19327 ft 250 kts 118°
2026-05-03 20:50 55.06852 -1.78733 19082 ft 249 kts 119°
2026-05-03 20:50 55.06024 -1.76080 18840 ft 248 kts 119°
2026-05-03 20:50 55.05206 -1.73460 18607 ft 247 kts 119°
2026-05-03 20:50 55.04386 -1.70839 18367 ft 246 kts 119°
2026-05-03 20:51 55.03568 -1.68221 18100 ft 245 kts 119°
2026-05-03 20:51 55.02750 -1.65616 17836 ft 245 kts 119°
2026-05-03 20:51 55.01938 -1.63022 17563 ft 244 kts 120°
2026-05-03 20:51 55.01121 -1.60419 17301 ft 245 kts 120°
2026-05-03 20:52 55.00302 -1.57816 17032 ft 245 kts 120°
2026-05-03 20:52 54.99487 -1.55232 16764 ft 241 kts 120°
2026-05-03 20:52 54.98685 -1.52681 16495 ft 239 kts 121°
2026-05-03 20:52 54.97895 -1.50177 16239 ft 238 kts 120°
2026-05-03 20:53 54.97099 -1.47655 15985 ft 239 kts 121°
2026-05-03 20:53 54.96295 -1.45123 15732 ft 238 kts 121°
2026-05-03 20:53 54.95499 -1.42611 15480 ft 236 kts 121°
2026-05-03 20:53 54.94710 -1.40120 15234 ft 234 kts 120°
2026-05-03 20:54 54.93927 -1.37650 14988 ft 232 kts 120°
2026-05-03 20:54 54.92372 -1.32753 14494 ft 231 kts 121°
2026-05-03 20:54 54.91597 -1.30314 14258 ft 231 kts 121°
2026-05-03 20:55 54.90818 -1.27875 14012 ft 230 kts 121°
2026-05-03 20:55 54.90046 -1.25450 13738 ft 230 kts 121°
2026-05-03 20:55 54.89279 -1.23025 13531 ft 233 kts 119°
2026-05-03 20:55 54.88493 -1.20445 13799 ft 250 kts 120°
2026-05-03 20:56 54.87650 -1.17732 14207 ft 264 kts 121°
2026-05-03 20:56 54.86745 -1.14934 14862 ft 269 kts 121°
2026-05-03 20:56 54.85824 -1.12116 15573 ft 272 kts 121°
2026-05-03 20:56 54.84886 -1.09245 16295 ft 274 kts 121°
2026-05-03 20:57 54.83945 -1.06359 17000 ft 277 kts 121°
2026-05-03 20:57 54.82993 -1.03444 17761 ft 278 kts 121°
2026-05-03 20:57 54.82026 -1.00483 18371 ft 286 kts 121°
2026-05-03 20:57 54.81043 -0.97472 18992 ft 288 kts 121°
2026-05-03 20:58 54.80045 -0.94422 19522 ft 294 kts 122°
2026-05-03 20:58 54.79036 -0.91341 20157 ft 294 kts 121°
2026-05-03 20:58 54.78023 -0.88254 20776 ft 297 kts 122°
2026-05-03 20:58 54.77002 -0.85147 21381 ft 298 kts 121°
2026-05-03 20:59 54.75976 -0.82025 21971 ft 300 kts 122°
2026-05-03 20:59 54.74936 -0.78859 22496 ft 303 kts 121°
2026-05-03 20:59 54.73885 -0.75662 23067 ft 307 kts 122°
2026-05-03 20:59 54.72837 -0.72482 23625 ft 309 kts 122°
2026-05-03 21:00 54.71753 -0.69201 24176 ft 311 kts 122°
2026-05-03 21:00 54.71041 -0.67049 24517 ft 312 kts 122°
2026-05-03 21:00 54.69593 -0.62676 25210 ft 315 kts 122°
2026-05-03 21:00 54.68502 -0.59378 25702 ft 317 kts 122°
2026-05-03 21:01 54.67402 -0.56061 26195 ft 319 kts 123°
2026-05-03 21:01 54.66292 -0.52721 26682 ft 321 kts 123°
2026-05-03 21:01 54.65178 -0.49372 27147 ft 323 kts 123°
2026-05-03 21:01 54.64073 -0.46052 27577 ft 326 kts 123°
2026-05-03 21:02 54.62942 -0.42656 28021 ft 328 kts 123°
2026-05-03 21:02 54.61801 -0.39235 28448 ft 330 kts 123°
2026-05-03 21:02 54.60650 -0.35788 28881 ft 332 kts 123°
2026-05-03 21:02 54.59491 -0.32324 29299 ft 334 kts 123°
2026-05-03 21:03 54.58325 -0.28840 29715 ft 337 kts 123°
2026-05-03 21:03 54.57150 -0.25334 30115 ft 339 kts 123°
2026-05-03 21:03 54.55971 -0.21812 30442 ft 341 kts 123°
2026-05-03 21:03 54.54779 -0.18258 30755 ft 343 kts 123°
2026-05-03 21:04 54.53580 -0.14693 31072 ft 345 kts 123°
2026-05-03 21:04 54.52378 -0.11121 31386 ft 347 kts 123°
2026-05-03 21:04 54.51166 -0.07531 31672 ft 349 kts 123°
2026-05-03 21:04 54.49939 -0.03895 31966 ft 351 kts 123°
2026-05-03 21:05 54.48712 -0.00250 32238 ft 353 kts 124°
2026-05-03 21:05 54.47480 0.03405 32502 ft 355 kts 125°
2026-05-03 21:05 54.46240 0.07064 32775 ft 357 kts 125°
2026-05-03 21:05 54.44987 0.10748 33047 ft 358 kts 125°
2026-05-03 21:06 54.43725 0.14462 33294 ft 360 kts 125°
2026-05-03 21:06 54.42462 0.18183 33554 ft 362 kts 124°
2026-05-03 21:06 54.41192 0.21927 33802 ft 364 kts 125°
2026-05-03 21:06 54.39908 0.25688 34034 ft 366 kts 125°
2026-05-03 21:07 54.38639 0.29405 34234 ft 367 kts 125°
2026-05-03 21:07 54.37326 0.33248 34436 ft 369 kts 124°
2026-05-03 21:07 54.36042 0.37003 34633 ft 370 kts 124°
2026-05-03 21:07 54.34720 0.40844 34831 ft 372 kts 124°
2026-05-03 21:08 54.33421 0.44624 35008 ft 374 kts 124°
2026-05-03 21:08 54.32101 0.48470 35200 ft 375 kts 124°
2026-05-03 21:08 54.30772 0.52325 35384 ft 377 kts 124°
2026-05-03 21:08 54.29440 0.56191 35553 ft 378 kts 124°
2026-05-03 21:09 54.28107 0.60060 35737 ft 380 kts 125°
2026-05-03 21:09 54.26754 0.63950 35906 ft 381 kts 124°
2026-05-03 21:09 54.25399 0.67855 36081 ft 382 kts 124°
2026-05-03 21:09 54.24045 0.71778 36240 ft 384 kts 124°
2026-05-03 21:10 54.22688 0.75702 36458 ft 384 kts 124°
2026-05-03 21:10 54.21311 0.79666 36186 ft 393 kts 124°
2026-05-03 21:10 54.19914 0.83664 35836 ft 390 kts 125°
2026-05-03 21:10 54.18540 0.87602 35567 ft 382 kts 125°
2026-05-03 21:11 54.17202 0.91455 35343 ft 373 kts 125°
2026-05-03 21:11 54.15897 0.95201 35132 ft 367 kts 125°
2026-05-03 21:11 54.14621 0.98837 35402 ft 350 kts 126°
2026-05-03 21:11 54.13383 1.02335 35603 ft 338 kts 126°
2026-05-03 21:12 54.10979 1.09108 35750 ft 335 kts 126°
2026-05-03 21:12 54.08566 1.15957 35828 ft 343 kts 126°
2026-05-03 21:13 54.06073 1.23020 35880 ft 353 kts 126°
2026-05-03 21:13 54.03510 1.30287 35940 ft 363 kts 126°
2026-05-03 21:14 54.00864 1.37749 36008 ft 374 kts 126°
2026-05-03 21:14 53.98134 1.45374 36091 ft 384 kts 126°
2026-05-03 21:15 53.96740 1.49248 36295 ft 384 kts 126°
2026-05-03 21:15 53.95360 1.53132 36481 ft 385 kts 125°
2026-05-03 21:15 53.93964 1.57052 36024 ft 389 kts 126°
2026-05-03 21:15 53.92575 1.60926 35685 ft 383 kts 126°
2026-05-03 21:16 53.91197 1.64738 35520 ft 372 kts 127°
2026-05-03 21:16 53.89870 1.68395 35467 ft 356 kts 127°
2026-05-03 21:16 53.88602 1.71895 35310 ft 344 kts 127°
2026-05-03 21:16 53.87360 1.75300 34896 ft 344 kts 127°
2026-05-03 21:17 53.86102 1.78771 35021 ft 341 kts 127°
2026-05-03 21:17 53.85278 1.81040 35023 ft 346 kts 127°
2026-05-03 21:17 53.82272 1.89295 34930 ft 365 kts 127°
2026-05-03 21:18 53.79608 1.96665 34905 ft 369 kts 127°
2026-05-03 21:18 53.76932 2.03989 34914 ft 369 kts 127°
2026-05-03 21:19 53.74203 2.11402 34916 ft 378 kts 127°
2026-05-03 21:19 53.71396 2.19019 34913 ft 390 kts 127°
2026-05-03 21:20 53.68477 2.26968 34930 ft 406 kts 127°
2026-05-03 21:20 53.65444 2.35231 34923 ft 422 kts 127°
2026-05-03 21:21 53.62288 2.43796 34917 ft 437 kts 126°
2026-05-03 21:21 53.59019 2.52631 34916 ft 451 kts 126°
2026-05-03 21:22 53.55645 2.61649 34906 ft 458 kts 126°
2026-05-03 21:22 53.52251 2.70732 34911 ft 459 kts 126°
2026-05-03 21:23 53.48844 2.79794 34916 ft 459 kts 127°
2026-05-03 21:23 53.45429 2.88835 34911 ft 459 kts 127°
2026-05-03 21:24 53.42005 2.97858 34908 ft 459 kts 127°
2026-05-03 21:24 53.38603 3.06817 34908 ft 459 kts 127°
2026-05-03 21:25 53.35179 3.15825 34897 ft 459 kts 127°
2026-05-03 21:25 53.31730 3.24804 34913 ft 459 kts 127°
2026-05-03 21:26 53.28287 3.33752 34916 ft 459 kts 127°
2026-05-03 21:26 53.24499 3.42199 34920 ft 448 kts 146°
2026-05-03 21:27 53.19238 3.47444 34938 ft 443 kts 154°
2026-05-03 21:27 53.13930 3.52585 34922 ft 441 kts 153°
2026-05-03 21:28 53.08639 3.57781 34915 ft 442 kts 154°
2026-05-03 21:28 53.03333 3.62979 34909 ft 443 kts 154°
2026-05-03 21:29 52.98127 3.68451 34937 ft 448 kts 142°
2026-05-03 21:29 52.96698 3.70965 34933 ft 456 kts 131°
2026-05-03 21:29 52.94364 3.76885 34946 ft 460 kts 126°
2026-05-03 21:30 52.91581 3.84381 34917 ft 459 kts 126°
2026-05-03 21:30 52.88208 3.93357 34919 ft 459 kts 126°
2026-05-03 21:31 52.84818 4.02304 34916 ft 459 kts 126°
2026-05-03 21:31 52.81409 4.11256 34907 ft 461 kts 127°
2026-05-03 21:32 52.77987 4.20222 34923 ft 462 kts 127°
2026-05-03 21:32 52.74554 4.29179 34920 ft 461 kts 127°
2026-05-03 21:33 52.71117 4.38117 34922 ft 461 kts 127°
2026-05-03 21:33 52.67675 4.47035 34913 ft 461 kts 127°
2026-05-03 21:34 52.64227 4.55936 34925 ft 462 kts 127°
2026-05-03 21:34 52.60761 4.64853 34921 ft 462 kts 127°
2026-05-03 21:35 52.57297 4.73737 34930 ft 462 kts 127°
2026-05-03 21:35 52.53824 4.82609 34932 ft 461 kts 127°
2026-05-03 21:36 52.50346 4.91463 34933 ft 461 kts 127°
2026-05-03 21:36 52.46888 5.00236 34940 ft 462 kts 127°
2026-05-03 21:37 52.43382 5.09098 34934 ft 463 kts 127°
2026-05-03 21:37 52.39873 5.17943 34946 ft 463 kts 128°
2026-05-03 21:38 52.36391 5.26684 34937 ft 463 kts 128°
2026-05-03 21:38 52.32865 5.35508 34941 ft 463 kts 128°
2026-05-03 21:39 52.29333 5.44315 34922 ft 463 kts 128°
2026-05-03 21:39 52.25792 5.53121 34940 ft 465 kts 128°
2026-05-03 21:40 52.22237 5.61927 34933 ft 465 kts 128°
2026-05-03 21:40 52.18678 5.70716 34934 ft 464 kts 128°
2026-05-03 21:41 52.15115 5.79491 34942 ft 464 kts 128°
2026-05-03 21:41 52.11568 5.88198 34943 ft 466 kts 129°
2026-05-03 21:42 52.07988 5.96954 34935 ft 464 kts 129°
2026-05-03 21:42 52.04413 6.05679 34941 ft 464 kts 129°
2026-05-03 21:43 52.00855 6.14322 34941 ft 463 kts 129°
2026-05-03 21:43 51.97273 6.22975 34941 ft 461 kts 132°
2026-05-03 21:44 51.95093 6.26710 34972 ft 451 kts 144°
2026-05-03 21:44 51.92671 6.29944 34964 ft 452 kts 146°
2026-05-03 21:44 51.87789 6.36318 34937 ft 449 kts 146°
2026-05-03 21:45 51.82933 6.42691 34943 ft 451 kts 146°
2026-05-03 21:45 51.78064 6.49086 34946 ft 451 kts 146°
2026-05-03 21:46 51.73195 6.55466 34946 ft 451 kts 146°
2026-05-03 21:46 51.68326 6.61827 34956 ft 451 kts 146°
2026-05-03 21:47 51.63460 6.68167 34954 ft 451 kts 146°
2026-05-03 21:47 51.58577 6.74509 34954 ft 453 kts 146°
2026-05-03 21:48 51.53693 6.80837 34957 ft 450 kts 146°
2026-05-03 21:48 51.48817 6.87135 34962 ft 450 kts 146°
2026-05-03 21:49 51.43929 6.93428 34641 ft 455 kts 146°
2026-05-03 21:49 51.41437 6.96631 33768 ft 458 kts 146°
2026-05-03 21:49 51.38985 6.99797 33136 ft 451 kts 146°
2026-05-03 21:50 51.36566 7.02907 32553 ft 441 kts 147°
2026-05-03 21:50 51.34195 7.05939 31975 ft 432 kts 147°
2026-05-03 21:50 51.31869 7.08904 31382 ft 425 kts 147°
2026-05-03 21:50 51.29579 7.11820 30858 ft 417 kts 147°
2026-05-03 21:51 51.27333 7.14604 30299 ft 407 kts 152°
2026-05-03 21:51 51.24922 7.16790 29747 ft 394 kts 159°
2026-05-03 21:51 51.22494 7.18697 29283 ft 384 kts 160°
2026-05-03 21:51 51.20106 7.20529 28757 ft 377 kts 160°
2026-05-03 21:52 51.17765 7.22326 28254 ft 371 kts 160°
2026-05-03 21:52 51.15466 7.24099 27807 ft 363 kts 160°
2026-05-03 21:52 51.13207 7.25848 27298 ft 358 kts 160°
2026-05-03 21:52 51.10982 7.27576 26842 ft 353 kts 160°
2026-05-03 21:53 51.08816 7.29342 26385 ft 352 kts 159°
2026-05-03 21:53 51.06665 7.31138 25910 ft 353 kts 159°
2026-05-03 21:53 51.04489 7.32946 25455 ft 353 kts 159°
2026-05-03 21:53 51.02318 7.34742 24977 ft 352 kts 159°
2026-05-03 21:54 51.00151 7.36531 24503 ft 349 kts 159°
2026-05-03 21:54 50.98000 7.38303 24050 ft 346 kts 159°
2026-05-03 21:54 50.95889 7.40038 23595 ft 343 kts 158°
2026-05-03 21:54 50.93784 7.41771 23127 ft 338 kts 159°
2026-05-03 21:55 50.91729 7.43456 22697 ft 334 kts 159°
2026-05-03 21:55 50.89730 7.45197 22313 ft 335 kts 150°
2026-05-03 21:55 50.88162 7.47985 22040 ft 350 kts 123°
2026-05-03 21:55 50.87488 7.51764 21839 ft 366 kts 98°
2026-05-03 21:56 50.87440 7.55819 21578 ft 371 kts 95°
2026-05-03 21:56 50.87286 7.59883 21278 ft 368 kts 102°
2026-05-03 21:56 50.86742 7.63786 21027 ft 359 kts 112°
2026-05-03 21:56 50.85857 7.67443 20774 ft 353 kts 121°
2026-05-03 21:57 50.84655 7.70781 20515 ft 347 kts 129°
2026-05-03 21:57 50.83236 7.73842 20276 ft 343 kts 134°
2026-05-03 21:57 50.81738 7.76768 20028 ft 342 kts 135°
2026-05-03 21:57 50.80217 7.79646 19773 ft 340 kts 135°
2026-05-03 21:58 50.78687 7.82506 19530 ft 346 kts 136°
2026-05-03 21:58 50.77045 7.85540 19357 ft 373 kts 135°
2026-05-03 21:58 50.75405 7.88616 19209 ft 361 kts 135°
2026-05-03 21:58 50.73814 7.91612 18863 ft 351 kts 135°
2026-05-03 21:59 50.72242 7.94556 18478 ft 362 kts 135°
2026-05-03 21:59 50.70581 7.97640 18040 ft 377 kts 135°
2026-05-03 21:59 50.68889 8.00801 17591 ft 379 kts 135°
2026-05-03 21:59 50.67186 8.03970 17145 ft 377 kts 135°
2026-05-03 22:00 50.65512 8.07070 16713 ft 374 kts 135°
2026-05-03 22:00 50.63831 8.10185 16276 ft 372 kts 135°
2026-05-03 22:00 50.62159 8.13284 15865 ft 370 kts 135°
2026-05-03 22:00 50.60500 8.16357 15438 ft 368 kts 135°
2026-05-03 22:01 50.58848 8.19412 15018 ft 366 kts 135°
2026-05-03 22:01 50.57207 8.22449 14598 ft 363 kts 135°
2026-05-03 22:01 50.55575 8.25454 14188 ft 360 kts 135°
2026-05-03 22:01 50.53956 8.28433 13798 ft 357 kts 135°
2026-05-03 22:02 50.52349 8.31396 13344 ft 355 kts 135°
2026-05-03 22:02 50.50754 8.34335 12894 ft 352 kts 135°
2026-05-03 22:02 50.49189 8.37210 12446 ft 349 kts 135°
2026-05-03 22:02 50.47612 8.40098 12012 ft 348 kts 135°
2026-05-03 22:03 50.46044 8.42968 11585 ft 346 kts 135°
2026-05-03 22:03 50.44483 8.45822 11162 ft 344 kts 135°
2026-05-03 22:03 50.42926 8.48662 10744 ft 342 kts 135°
2026-05-03 22:03 50.41385 8.51474 10340 ft 336 kts 135°
2026-05-03 22:04 50.39887 8.54213 9926 ft 328 kts 135°
2026-05-03 22:04 50.38414 8.56902 9478 ft 321 kts 136°
2026-05-03 22:04 50.36974 8.59517 9035 ft 314 kts 136°
2026-05-03 22:04 50.35564 8.62074 8589 ft 309 kts 136°
2026-05-03 22:05 50.34170 8.64599 8162 ft 303 kts 135°
2026-05-03 22:05 50.32831 8.67028 8314 ft 276 kts 136°
2026-05-03 22:05 50.31575 8.69301 8246 ft 286 kts 137°
2026-05-03 22:05 50.30288 8.71605 8030 ft 285 kts 137°
2026-05-03 22:06 50.28984 8.73951 7615 ft 287 kts 136°
2026-05-03 22:06 50.27694 8.76282 7217 ft 285 kts 136°
2026-05-03 22:06 50.26528 8.78760 7007 ft 282 kts 120°
2026-05-03 22:06 50.26035 8.81721 7047 ft 286 kts 103°
2026-05-03 22:07 50.25740 8.84829 7062 ft 291 kts 103°
2026-05-03 22:07 50.25431 8.87895 7072 ft 277 kts 103°
2026-05-03 22:07 50.25134 8.90889 6969 ft 286 kts 103°
2026-05-03 22:07 50.24820 8.93952 6703 ft 282 kts 104°
2026-05-03 22:08 50.24515 8.96934 6442 ft 274 kts 103°
2026-05-03 22:08 50.24221 8.99834 6148 ft 267 kts 103°
2026-05-03 22:08 50.23928 9.02663 5871 ft 261 kts 103°
2026-05-03 22:08 50.23628 9.05417 5592 ft 256 kts 104°
2026-05-03 22:09 50.23326 9.08139 5319 ft 253 kts 104°
2026-05-03 22:09 50.22988 9.10808 5041 ft 249 kts 111°
2026-05-03 22:09 50.22125 9.13023 4766 ft 241 kts 143°
2026-05-03 22:10 50.19145 9.13790 4201 ft 221 kts 211°
2026-05-03 22:10 50.17982 9.12366 4043 ft 211 kts 224°
2026-05-03 22:10 50.16854 9.10919 4104 ft 212 kts 220°
2026-05-03 22:10 50.15803 9.09320 4120 ft 213 kts 242°
2026-05-03 22:11 50.15345 9.07140 4163 ft 215 kts 257°
2026-05-03 22:11 50.14927 9.04891 4052 ft 218 kts 249°
2026-05-03 22:11 50.14349 9.02726 4001 ft 213 kts 248°
2026-05-03 22:11 50.13841 9.00552 4014 ft 214 kts 251°
2026-05-03 22:12 50.13364 8.98387 4010 ft 215 kts 250°
2026-05-03 22:12 50.12842 8.96205 4013 ft 215 kts 249°
2026-05-03 22:12 50.12327 8.94013 4009 ft 215 kts 250°
2026-05-03 22:12 50.11824 8.91832 4009 ft 214 kts 250°
2026-05-03 22:13 50.11311 8.89650 4010 ft 215 kts 250°
2026-05-03 22:13 50.10794 8.87453 4003 ft 216 kts 250°
2026-05-03 22:13 50.10289 8.85288 3955 ft 211 kts 250°
2026-05-03 22:13 50.09784 8.83140 3680 ft 209 kts 250°
2026-05-03 22:14 50.09309 8.81121 3412 ft 198 kts 250°
2026-05-03 22:14 50.08853 8.79179 3132 ft 184 kts 250°
2026-05-03 22:14 50.08430 8.77380 2881 ft 172 kts 250°
2026-05-03 22:14 50.08031 8.75687 2669 ft 160 kts 250°
2026-05-03 22:15 50.07665 8.74130 2442 ft 146 kts 250°
2026-05-03 22:15 50.07339 8.72747 2297 ft 128 kts 250°
2026-05-03 22:15 50.07048 8.71515 2100 ft 118 kts 249°
2026-05-03 22:15 50.06769 8.70337 1940 ft 115 kts 249°
2026-05-03 22:16 50.06502 8.69154 1807 ft 118 kts 251°
2026-05-03 22:16 50.06263 8.67919 1686 ft 120 kts 252°
2026-05-03 22:16 50.06003 8.66681 1530 ft 120 kts 250°
2026-05-03 22:16 50.05745 8.65437 1375 ft 121 kts 253°
2026-05-03 22:17 50.05555 8.64610 1254 ft 123 kts 245°
2026-05-03 22:17 50.05080 8.62979 1007 ft 124 kts 247°
2026-05-03 22:17 50.04762 8.61730 845 ft 124 kts 248°
2026-05-03 22:17 50.04564 8.60952 778 ft 124 kts 249°
2026-05-03 22:18 50.04256 8.59677 582 ft 127 kts 249°
2026-05-03 22:18 50.03954 8.58439 388 ft 123 kts 248°
2026-05-03 22:18 50.03676 8.57281 358 ft 101 kts 251°
2026-05-03 22:18 50.03477 8.56442 357 ft 68 kts 249°
2026-05-03 22:19 50.03352 8.55923 354 ft 36 kts 251°
2026-05-03 22:19 50.03311 8.55553 348 ft 33 kts 274°
2026-05-03 22:19 50.03328 8.55369 352 ft 12 kts 279°
2026-05-03 22:19 50.03342 8.55241 353 ft 13 kts 279°
2026-05-03 22:20 50.03382 8.55163 355 ft 7 kts 345°
2026-05-03 22:20 50.03410 8.55176 357 ft 3 kts 30°
2026-05-03 22:20 50.03430 8.55210 357 ft 6 kts 56°
2026-05-03 22:20 50.03446 8.55276 354 ft 8 kts 71°
2026-05-03 22:21 50.03466 8.55365 359 ft 10 kts 68°
2026-05-03 22:21 50.03492 8.55472 360 ft 12 kts 70°
2026-05-03 22:21 50.03521 8.55596 360 ft 13 kts 70°
2026-05-03 22:21 50.03557 8.55741 357 ft 17 kts 69°
2026-05-03 22:22 50.03605 8.55943 356 ft 21 kts 71°
2026-05-03 22:22 50.03654 8.56153 358 ft 22 kts 70°
2026-05-03 22:22 50.03700 8.56348 357 ft 18 kts 68°
2026-05-03 22:22 50.03747 8.56538 359 ft 19 kts 71°
2026-05-03 22:23 50.03795 8.56740 359 ft 21 kts 70°
2026-05-03 22:23 50.03848 8.56956 355 ft 22 kts 69°
2026-05-03 22:23 50.03900 8.57179 360 ft 22 kts 70°
2026-05-03 22:23 50.03954 8.57412 362 ft 24 kts 70°
2026-05-03 22:24 50.04012 8.57651 360 ft 24 kts 69°
2026-05-03 22:24 50.04072 8.57904 361 ft 26 kts 69°
2026-05-03 22:24 50.04137 8.58168 356 ft 27 kts 69°
2026-05-03 22:24 50.04202 8.58445 360 ft 27 kts 68°
2026-05-03 22:25 50.04266 8.58724 359 ft 27 kts 75°
2026-05-03 22:25 50.04331 8.58981 361 ft 26 kts 70°
2026-05-03 22:25 50.04397 8.59250 356 ft 27 kts 68°
2026-05-03 22:25 50.04443 8.59440 362 ft 8 kts 61°
2026-05-03 22:26 50.04473 8.59472 358 ft 4 kts 14°
2026-05-03 22:26 50.04500 8.59473 360 ft 4 kts 356°
2026-05-03 22:26 50.04537 8.59469 357 ft 7 kts 356°
2026-05-03 22:26 50.04546 8.59468 357 ft 0 kts 356°
2026-05-03 22:27 50.04575 8.59466 372 ft 8 kts 356°
2026-05-03 22:27 50.04620 8.59462 363 ft 8 kts 356°
2026-05-03 22:27 50.04678 8.59450 366 ft 9 kts 346°
2026-05-03 22:28 50.04739 8.59420 365 ft 10 kts 340°
2026-05-03 22:28 50.04796 8.59385 365 ft 12 kts 339°
2026-05-03 22:28 50.04880 8.59349 363 ft 12 kts
2026-05-03 22:28 50.04956 8.59324 365 ft 11 kts 340°
2026-05-03 22:29 50.05032 8.59274 370 ft 13 kts 337°
2026-05-03 22:29 50.05057 8.59221 363 ft 1 kts 268°
2026-05-03 22:29 50.05054 8.59202 363 ft 2 kts 247°
2026-05-03 22:29 50.05046 8.59195 369 ft 1 kts 205°
2026-05-03 22:30 50.05034 8.59197 369 ft 3 kts 178°
2026-05-03 22:30 50.05017 8.59206 366 ft 3 kts 160°
2026-05-03 22:30 50.05004 8.59213 363 ft 0 kts 160°
2026-05-03 22:30 50.05001 8.59215 367 ft 0 kts 160°